[[{"header":{"parameterUnit":"m.s-1","parameterCategory":1,"la1":30.2991,"la2":30.254,"lo1":-89.0895,"lo2":-89.0444,"dy":0.0017,"dx":0.0017,"nx":28,"ny":28,"refTime":"2025-01-26T09:00:00:Z","depth":0,"parameterNumber":2,"parameterNumberName":"U-component_of_WINDS"},"data":[0,0,0,0,0,0,0,0,0,0,0,0,0,0,0,0,0,0,0,0,0,0,0,0,0,0,0,0,0,0,0,0,0,0,0,0,0,0,0,0,0,0,0,0,0,0,0,0,0,0,0,0,0,0,0,0,0,0,0.3563,0.3563,0,0.3556,0.3556,0.3555,0.3522,0.3521,0.352,0.352,0.3513,0.3514,0.3514,0,0,0,0,0,0,0,0,0,0,0,0,0,0.3549,0.355,0.3563,0.3563,0.3563,0.3556,0.3556,0.3555,0.3522,0.3521,0.352,0.3519,0.3513,0.3514,0.3514,0,0,0,0,0,0,0,0,0,0,0,0,0,0.355,0.355,0.3563,0.3545,0.3544,0.3556,0.3556,0.3555,0.3522,0.3521,0.352,0.3519,0.3513,0.3514,0.3514,0.3543,0,0,0.3517,0.3517,0,0,0,0,0,0,0,0,0.355,0.355,0.3548,0.3546,0.3545,0.3538,0.3548,0.3551,0.3523,0.353,0.352,0.3518,0.3523,0.3523,0.3524,0.3543,0.3543,0.3517,0.3518,0.3518,0.3518,0,0,0,0,0,0,0,0.355,0.3551,0.356,0.3548,0.3546,0.3538,0.3537,0.3549,0.3533,0.353,0.3527,0.3527,0.3521,0.3523,0.3523,0.3542,0.3517,0.3518,0.3518,0.3519,0.3586,0.3587,0,0,0,0,0,0,0.3552,0.3551,0.356,0.356,0.3544,0.3539,0.3538,0.3542,0.3533,0.3531,0.3528,0.3525,0.3522,0.3522,0.3523,0.3557,0.3518,0.3519,0.3519,0.3584,0.3586,0.3587,0,0,0,0,0,0,0.3552,0.3553,0.356,0.3555,0.3555,0.3541,0.3545,0.3542,0.3544,0.3532,0.3529,0.3532,0.3521,0.3522,0.3539,0.3556,0.3519,0.352,0.3583,0.3585,0.3587,0.3624,0,0,0,0,0,0,0.3552,0.3553,0.3564,0.3555,0.3555,0.3576,0.3546,0.3543,0.3545,0.3542,0.3535,0.3533,0.352,0.3537,0.3539,0.3556,0.352,0.3581,0.3584,0.3586,0.3621,0.3627,0.3632,0,0,0,0,0,0.3551,0.3575,0.3565,0.3566,0.3568,0.3577,0.3577,0.3562,0.3547,0.3557,0.355,0.3533,0.3554,0.3539,0.3541,0.3559,0.358,0.3583,0.3586,0.3619,0.3626,0.3632,0,0,0,0,0,0,0.3586,0.3573,0.3562,0.3583,0.3581,0.3571,0.3584,0.357,0.3573,0.357,0.3551,0.355,0.357,0.3566,0.355,0.3587,0.3564,0.3567,0.3588,0.3595,0.36,0.3601,0.3521,0,0,0,0,0,0.3596,0.3604,0.3592,0.3612,0.3612,0.3598,0.3602,0.359,0.3588,0.3587,0.3581,0.3579,0.3586,0.359,0.3595,0.362,0.3619,0.3633,0.3639,0.3643,0.3647,0.366,0.3667,0.3597,0.3597,0.3597,0,0,0.3617,0.3611,0.3617,0.3619,0.3616,0.3625,0.3598,0.3608,0.3615,0.3589,0.3604,0.36,0.3597,0.3618,0.3627,0.3616,0.3666,0.3647,0.3651,0.3651,0.3664,0.3671,0.3677,0.3599,0.3598,0.3598,0,0,0.3659,0.3655,0.3672,0.367,0.3666,0.3657,0.3661,0.3654,0.365,0.3665,0.3645,0.3653,0.3664,0.3663,0.3664,0.3708,0.3693,0.371,0.3738,0.3752,0.3758,0.3763,0.3779,0.3785,0.3713,0.3713,0.3714,0,0.3686,0.3698,0.3682,0.3694,0.3696,0.3673,0.3689,0.3688,0.3687,0.3689,0.3676,0.369,0.3686,0.3707,0.3718,0.3719,0.3724,0.3711,0.3758,0.3763,0.3767,0.3782,0.3788,0.3716,0.3715,0.3715,0.3715,0,0.3731,0.3741,0.3754,0.3754,0.3757,0.3771,0.3758,0.3763,0.3752,0.3744,0.3761,0.3756,0.376,0.3764,0.3753,0.3784,0.3777,0.3761,0.3738,0.3776,0.379,0.3796,0.3719,0.3718,0.3717,0.3717,0,0,0.3795,0.3786,0.3791,0.3791,0.3786,0.3793,0.3806,0.381,0.3816,0.3816,0.3827,0.3837,0.3823,0.3824,0.3813,0.3825,0.3861,0.3808,0.3808,0.3819,0.3896,0.3908,0.3915,0.3851,0.3852,0.3853,0.3896,0,0.3836,0.3859,0.3845,0.387,0.3879,0.3857,0.3869,0.3868,0.3862,0.3868,0.3861,0.3869,0.3849,0.385,0.3861,0.3854,0.3876,0.3851,0.3862,0.3863,0.3864,0.3922,0.3934,0.3975,0.3901,0.3902,0.3903,0,0.3887,0.389,0.3916,0.391,0.3913,0.3924,0.3927,0.3933,0.3932,0.3926,0.3928,0.3914,0.3928,0.3905,0.3924,0.3907,0.3911,0.3909,0.391,0.391,0.3885,0.3925,0.3988,0.3994,0.3911,0.3911,0.391,0,0.3932,0.3941,0.3958,0.3959,0.3952,0.3961,0.3958,0.3955,0.3959,0.3961,0.3964,0.3968,0.3971,0.3975,0.3962,0.3947,0.3983,0.3959,0.398,0.398,0.3989,0.3988,0.4054,0.3991,0.399,0.399,0.399,0,0.3979,0.3996,0.3978,0.3989,0.4008,0.3992,0.4011,0.4006,0.4004,0.4014,0.3995,0.4005,0.3988,0.3996,0.3987,0.4004,0.4005,0.4002,0.3999,0.4004,0.4004,0.4006,0.4003,0.3992,0.3992,0.3991,0.3991,0,0.4032,0.4021,0.4038,0.403,0.4029,0.4043,0.4037,0.4047,0.4039,0.4052,0.4054,0.4043,0.4051,0.404,0.4047,0.4041,0.4065,0.4058,0.4066,0.4064,0.4085,0.4083,0.4154,0.4163,0.4094,0.4095,0.4095,0,0.4063,0.4075,0.407,0.4075,0.4074,0.4082,0.4086,0.4071,0.4076,0.4075,0.4085,0.4092,0.4097,0.4112,0.4105,0.4111,0.4104,0.4128,0.4105,0.4109,0.4105,0.4104,0.4106,0.4133,0.4134,0.4135,0.4135,0,0.412,0.4114,0.4119,0.4124,0.4129,0.4132,0.4133,0.4139,0.4123,0.413,0.4138,0.4142,0.415,0.4158,0.4162,0.416,0.4145,0.4143,0.4148,0.4153,0.4157,0.4156,0.4079,0.4141,0.4141,0.414,0.414,0.414,0.4163,0.4173,0.4171,0.4178,0.4178,0.418,0.4189,0.4183,0.419,0.4195,0.4186,0.4198,0.4196,0.42,0.42,0.4209,0.4199,0.4206,0.4208,0.421,0.4213,0.4156,0.421,0.421,0.4209,0.4209,0.4209,0,0.4219,0.4216,0.4223,0.4226,0.4233,0.4219,0.422,0.4226,0.4236,0.4236,0.4241,0.4252,0.426,0.4253,0.4259,0.4268,0.4262,0.427,0.4269,0.4269,0.4222,0.4217,0.4275,0.4275,0.4275,0.4275,0.4275,0.4275,0.4248,0.4266,0.426,0.4277,0.4275,0.4286,0.4288,0.429,0.429,0.4302,0.4309,0.4304,0.4302,0.4308,0.4315,0.4313,0.4316,0.4327,0.4323,0.4279,0.4273,0.4266,0.4262,0.4328,0.4328,0.437,0.437,0.437]},{"header":{"parameterUnit":"m.s-1","parameterCategory":1,"la1":30.2991,"la2":30.254,"lo1":-89.0895,"lo2":-89.0444,"dy":0.0017,"dx":0.0017,"nx":28,"ny":28,"refTime":"2025-01-26T09:00:00:Z","depth":0,"parameterNumber":3,"parameterNumberName":"V-component_of_WINDS"},"data":[0,0,0,0,0,0,0,0,0,0,0,0,0,0,0,0,0,0,0,0,0,0,0,0,0,0,0,0,0,0,0,0,0,0,0,0,0,0,0,0,0,0,0,0,0,0,0,0,0,0,0,0,0,0,0,0,0,0,3.2637,3.2638,0,3.2702,3.2703,3.2703,3.268,3.2679,3.2677,3.2676,3.2742,3.2745,3.2749,0,0,0,0,0,0,0,0,0,0,0,0,0,3.2495,3.2497,3.2637,3.2638,3.2639,3.2702,3.2703,3.2704,3.2681,3.2679,3.2677,3.2675,3.2741,3.2745,3.2749,0,0,0,0,0,0,0,0,0,0,0,0,0,3.2558,3.2498,3.2637,3.2635,3.2635,3.2702,3.2703,3.2704,3.2681,3.2679,3.2677,3.2675,3.274,3.2745,3.2749,3.2821,0,0,3.2764,3.2766,0,0,0,0,0,0,0,0,3.2554,3.2563,3.2634,3.2635,3.2636,3.2681,3.2677,3.2743,3.2682,3.2664,3.2676,3.2674,3.2724,3.273,3.2746,3.2825,3.2827,3.2764,3.2767,3.2769,3.277,0,0,0,0,0,0,0,3.255,3.256,3.2663,3.2635,3.2636,3.2631,3.2638,3.2689,3.2705,3.2665,3.2664,3.2671,3.2724,3.2742,3.2748,3.2828,3.2764,3.2768,3.2771,3.2773,3.2971,3.2973,0,0,0,0,0,0,3.2545,3.2557,3.2661,3.2665,3.2589,3.2635,3.2643,3.2669,3.2704,3.2708,3.2673,3.267,3.2735,3.2742,3.275,3.2838,3.2769,3.2773,3.2776,3.2968,3.2971,3.2974,0,0,0,0,0,0,3.2542,3.2555,3.2658,3.261,3.2623,3.264,3.2669,3.2671,3.2689,3.2711,3.2713,3.2689,3.2734,3.2744,3.2804,3.284,3.2775,3.278,3.2966,3.2969,3.2973,3.3015,0,0,0,0,0,0,3.2538,3.2554,3.2581,3.2611,3.2626,3.2711,3.2671,3.2674,3.2697,3.2694,3.2726,3.2729,3.2733,3.2798,3.2809,3.2846,3.2783,3.2962,3.2967,3.2972,3.301,3.3019,3.3027,0,0,0,0,0,3.2533,3.259,3.2582,3.2595,3.266,3.2713,3.2721,3.2724,3.27,3.2728,3.2742,3.2728,3.2834,3.2804,3.2817,3.2855,3.296,3.2966,3.2971,3.3006,3.3018,3.3027,0,0,0,0,0,0,3.2563,3.2594,3.2586,3.2654,3.2681,3.2709,3.2744,3.2736,3.277,3.2766,3.2767,3.2775,3.2838,3.2852,3.2818,3.2928,3.2894,3.2902,3.2916,3.2927,3.2935,3.2931,3.2787,0,0,0,0,0,3.2578,3.2618,3.2642,3.27,3.2714,3.2727,3.275,3.275,3.2778,3.279,3.2808,3.2836,3.2876,3.2902,3.294,3.3012,3.3019,3.3045,3.3053,3.306,3.3068,3.3109,3.3121,3.2992,3.2992,3.2992,0,0,3.2608,3.263,3.2655,3.2707,3.2728,3.277,3.2737,3.2783,3.2814,3.2797,3.2856,3.287,3.2902,3.2969,3.3,3.2983,3.3105,3.3067,3.3073,3.3076,3.3116,3.3128,3.3139,3.2996,3.2995,3.2995,0,0,3.2685,3.2705,3.2756,3.2778,3.2811,3.2819,3.2832,3.2862,3.2871,3.293,3.2918,3.2956,3.3024,3.3047,3.3068,3.3156,3.3145,3.3168,3.3213,3.3253,3.3263,3.3272,3.3305,3.3317,3.3175,3.3175,3.3175,0,3.2719,3.2782,3.2784,3.2831,3.2855,3.2841,3.2893,3.2915,3.2958,3.2975,3.2956,3.3042,3.3062,3.3136,3.3157,3.3174,3.3189,3.3165,3.3261,3.327,3.3279,3.331,3.3323,3.3178,3.3178,3.3177,3.3177,0,3.2823,3.2867,3.2904,3.2947,3.2975,3.3024,3.3034,3.3062,3.306,3.307,3.3132,3.3156,3.3199,3.3216,3.3213,3.329,3.3279,3.326,3.3227,3.3294,3.3324,3.3335,3.3182,3.3181,3.318,3.3179,0,0,3.2921,3.2965,3.2978,3.2998,3.3034,3.3068,3.3118,3.316,3.3185,3.3215,3.3258,3.3316,3.33,3.3324,3.3324,3.3359,3.3429,3.3337,3.3338,3.3355,3.3516,3.3531,3.3545,3.3422,3.3424,3.3426,3.3514,0,3.3002,3.3089,3.3092,3.3172,3.3214,3.3202,3.3245,3.3272,3.3283,3.3321,3.3333,3.3375,3.335,3.3365,3.3399,3.3413,3.3462,3.3407,3.3462,3.3464,3.3456,3.356,3.3575,3.3657,3.3526,3.3528,3.3529,0,3.3108,3.3143,3.3227,3.3258,3.3276,3.3315,3.3355,3.339,3.3421,3.3427,3.3454,3.345,3.3501,3.3465,3.3537,3.3499,3.3522,3.3533,3.3536,3.3542,3.3502,3.357,3.3683,3.3696,3.3547,3.3546,3.3544,0,3.3174,3.3241,3.33,3.3318,3.3355,3.3383,3.34,3.3428,3.3454,3.3489,3.3506,3.3546,3.3569,3.36,3.3607,3.358,3.368,3.3643,3.3687,3.3687,3.3709,3.3708,3.3829,3.3722,3.3722,3.3721,3.3721,0,3.3265,3.3317,3.333,3.3367,3.3426,3.3429,3.3487,3.3502,3.3528,3.3568,3.3559,3.3597,3.3603,3.3643,3.3649,3.3708,3.3718,3.3725,3.3726,3.3726,3.3726,3.3742,3.3737,3.3725,3.3724,3.3723,3.3723,0,3.3347,3.3358,3.3423,3.3453,3.3462,3.3504,3.353,3.3566,3.3577,3.3628,3.364,3.3657,3.3703,3.3713,3.3767,3.3771,3.3842,3.3837,3.3832,3.3832,3.3876,3.3872,3.4013,3.4032,3.3911,3.3912,3.3913,0,3.3405,3.3446,3.3481,3.3507,3.3526,3.3568,3.3594,3.36,3.3628,3.3667,3.3698,3.3743,3.378,3.3854,3.3872,3.3914,3.391,3.3957,3.3917,3.3916,3.3913,3.3911,3.3916,3.3965,3.3966,3.3967,3.3968,0,3.3508,3.3512,3.355,3.3592,3.3624,3.3657,3.3688,3.371,3.3719,3.3752,3.3799,3.3827,3.3884,3.3929,3.3972,3.3989,3.3981,3.398,3.3993,3.3995,3.3991,3.3995,3.3855,3.3977,3.3976,3.3976,3.3975,3.3975,3.3581,3.3617,3.3648,3.3692,3.3716,3.3746,3.3781,3.3797,3.3836,3.3883,3.3883,3.3936,3.3967,3.4023,3.4043,3.4084,3.407,3.4088,3.4093,3.4097,3.4102,3.3983,3.4092,3.4092,3.4091,3.4091,3.4091,0,3.3685,3.3704,3.3745,3.3789,3.3824,3.3813,3.3847,3.3877,3.3923,3.3953,3.3989,3.4045,3.4089,3.411,3.4155,3.4184,3.4181,3.4195,3.4194,3.4199,3.4112,3.4097,3.4197,3.4197,3.4197,3.4197,3.4197,3.4197,3.3743,3.3803,3.3811,3.3884,3.3903,3.3955,3.3975,3.4003,3.4027,3.4089,3.4126,3.414,3.4167,3.4213,3.4254,3.4259,3.4276,3.4293,3.4296,3.4215,3.4204,3.4194,3.4181,3.4296,3.4296,3.438,3.4381,3.4381]}]]